Flag for Czech Republic Weather past 2 weeks in Prague, Czech Republic

Now
32 °F

Passing clouds.


Feels Like: 24 °F
Forecast: 26 / 37 °F
Wind: 9 mph from Southeast

Location: Prague Ruzyne Airport

Current Time: Jan 30, 2015 at 7:41:05 AM

Latest Report: Jan 30, 2015 at 7:00 AM


Visibility: N/A

Pressure: 28.77 "Hg

Humidity: 80%

Dew point: 27 °F

Location of PragueLocation

Historic Weather in Prague — Graph

°F

Prague temperature yesterday

Maximum temperature yesterday: 37 °F (at 2:00 PM)
Minimum temperature yesterday: 30 °F (at 8:00 AM)
Average temperature yesterday: 34 °F

Past Weeks' High & Low Weather Summary

 TemperatureHumidityPressure
High41 °F (Jan 15, 2:30 PM)100% (Jan 17, 3:00 AM)30.27 "Hg (Jan 17, 3:00 AM)
Low27 °F (Jan 26, 7:30 AM)60% (Jan 29, 2:00 PM)28.74 "Hg (Jan 30, 5:30 AM)
Average34 °F86%29.89 "Hg
* Reported Jan 15 6:00 AM — Jan 30 6:30 AM, Prague, Weather by CustomWeather, © 2014

Note: Actual official high and low records may vary slightly from our data, if they occured in-between our weather recording intervals... More about our weather records

Advertising

Prague weather history for previous 24 hours

 ConditionsComfort  
Time TempWeatherWind HumidityBarometerVisibility
6:30 AM
Jan 30
32 °FPassing clouds.10 mph80%28.74 "HgN/A
6:00 AM32 °FPassing clouds.10 mph80%28.74 "HgN/A
5:30 AM32 °FClear.10 mph80%28.74 "Hg10 mi
5:00 AM32 °FClear.9 mph80%28.77 "Hg10 mi
4:30 AM32 °FClear.10 mph80%28.77 "Hg10 mi
4:00 AM32 °FClear.12 mph75%28.77 "Hg10 mi
3:30 AM32 °FPassing clouds.13 mph75%28.80 "HgN/A
3:00 AM32 °FPassing clouds.10 mph80%28.80 "HgN/A
2:30 AM34 °FLight snow. Mostly cloudy.9 mph75%28.82 "Hg5 mi
2:00 AM34 °FPassing clouds.8 mph70%28.85 "HgN/A
1:30 AM34 °FPassing clouds.8 mph70%28.85 "HgN/A
1:00 AM32 °FPassing clouds.9 mph69%28.88 "HgN/A
12:30 AM32 °FClear.12 mph69%28.88 "Hg10 mi
12:00 AM32 °FPassing clouds.8 mph64%28.91 "HgN/A
11:30 PM
Jan 29
32 °FClear.12 mph69%28.94 "Hg10 mi
11:00 PM32 °FPassing clouds.9 mph69%28.97 "HgN/A
10:30 PM34 °FPassing clouds.9 mph70%28.97 "HgN/A
10:00 PM32 °FClear.10 mph75%29.00 "Hg10 mi
9:30 PM34 °FPassing clouds.12 mph70%29.03 "HgN/A
9:00 PM34 °FPassing clouds.10 mph70%29.06 "HgN/A
8:30 PM34 °FPassing clouds.14 mph70%29.09 "HgN/A
8:00 PM34 °FPassing clouds.14 mph70%29.12 "HgN/A
7:30 PM34 °FPassing clouds.12 mph70%29.12 "HgN/A
7:00 PM34 °FPassing clouds.16 mph70%29.15 "HgN/A
6:30 PM34 °FPassing clouds.15 mph65%29.15 "HgN/A
6:00 PM34 °FPassing clouds.13 mph65%29.18 "HgN/A
5:30 PM36 °FPassing clouds.10 mph60%29.21 "HgN/A
5:00 PM34 °FPassing clouds.10 mph65%29.21 "HgN/A
4:30 PM36 °FScattered clouds.12 mph60%29.21 "HgN/A
4:00 PM36 °FScattered clouds.12 mph60%29.24 "HgN/A
3:30 PM36 °FPassing clouds.13 mph60%29.24 "HgN/A
3:00 PM36 °FPassing clouds.15 mph60%29.27 "HgN/A
2:30 PM37 °FPassing clouds.18 mph60%29.27 "HgN/A
2:00 PM37 °FScattered clouds.14 mph60%29.30 "HgN/A
1:30 PM36 °FPartly sunny.17 mph65%29.33 "HgN/A
1:00 PM36 °FScattered clouds.20 mph65%29.36 "HgN/A
12:30 PM36 °FScattered clouds.21 mph65%29.36 "HgN/A
12:00 PM36 °FScattered clouds.24 mph65%29.39 "HgN/A
11:30 AM34 °FScattered clouds.22 mph70%29.39 "HgN/A
11:00 AM36 °FPassing clouds.23 mph65%29.39 "HgN/A
10:30 AM34 °FPassing clouds.20 mph75%29.42 "HgN/A
10:00 AM34 °FPassing clouds.15 mph70%29.42 "HgN/A
9:30 AM32 °FSunny.17 mph75%29.42 "Hg10 mi
9:00 AM32 °FSunny.18 mph80%29.42 "Hg10 mi
8:30 AM30 °FSunny.17 mph86%29.42 "Hg10 mi
8:00 AM30 °FPassing clouds.14 mph86%29.42 "HgN/A
7:30 AM32 °FPassing clouds.14 mph80%29.42 "HgN/A
7:00 AM32 °FPassing clouds.14 mph80%29.42 "HgN/A
Weather by CustomWeather, © 2014

See weather overviewHow to use our weather pages